Karlovy, Czech Republic

5:50 AM CET on December 08, 2016 (GMT +0100)
Karlovy Vary

Weather History for LKKV - May, 2013

Change the Weather History Date:

Tuesday, May 7, 2013

  Actual Average (EDQM) Record (EDQM)
Temperature  
Mean Temperature 58 °F -  
Max Temperature 64 °F 60 °F 75 °F (2000)
Min Temperature 51 °F 44 °F 32 °F (1997)
Degree Days  
Heating Degree Days 8    
Growing Degree Days 8 (Base 50)    
Moisture  
Dew Point 54 °F    
Average Humidity 88    
Maximum Humidity 100    
Minimum Humidity 68    
Precipitation  
Precipitation 0.00 in - - ()
Sea Level Pressure  
Sea Level Pressure 29.99 in    
Wind  
Wind Speed 5 mph ()    
Max Wind Speed 13 mph    
Max Gust Speed -    
Visibility 4.0 miles    
Events Rain    
Averages and records for this station are not official NWS values.
T = Trace of Precipitation, MM = Missing Value Source: Averaged Metar Reports

Daily Weather History Graph

Daily Weather History Graph

Search for Another Location

Airport or City:

Trip Planner

Search our weather history database for the weather conditions in past years. The results will help you decide how hot, cold, wet, or windy it might be!

Date:

Astronomy

May. 07, 2013 Rise Set
Actual Time 5:33 AM CEST 8:36 PM CEST
Civil Twilight 4:55 AM CEST 9:15 PM CEST
Nautical Twilight 4:06 AM CEST 10:04 PM CEST
Astronomical Twilight 3:04 AM CEST 11:08 PM CEST
Moon 4:14 AM CEST (5/7) 6:07 PM CEST (5/7)
Length of Visible Light 16h 19m
Length of Day
15h 03m
Waning Crescent, 7% of the Moon is Illuminated
May 7
Waning Crescent
May 10
New
May 18
First Quarter
May 25
Full
May 31
Last Quarter

Hourly Weather History & Observations

Time (CEST) Temp. Dew Point Humidity Pressure Visibility Wind Dir Wind Speed Gust Speed Precip Events Conditions
12:00 AM 53.6 °F 51.8 °F 94% 30.04 in 1.9 mi ENE 3.5 mph - N/A   Partly Cloudy
1:00 AM 53.6 °F 51.8 °F 94% 30.01 in 1.9 mi NNE 4.6 mph - N/A   Mist
2:00 AM 53.6 °F 51.8 °F 94% 30.01 in 3.1 mi NE 5.8 mph - N/A   Mist
3:00 AM 51.8 °F 51.8 °F 100% 30.01 in 1.4 mi ENE 3.5 mph - N/A   Mostly Cloudy
4:00 AM 53.6 °F 53.6 °F 100% 29.98 in 3.1 mi NE 5.8 mph - N/A   Mostly Cloudy
5:00 AM 55.4 °F 53.6 °F 94% 29.98 in 2.5 mi NE 4.6 mph - N/A   Mostly Cloudy
6:00 AM 53.6 °F 53.6 °F 100% 29.98 in 0.7 mi NNE 3.5 mph - N/A   Mostly Cloudy
6:30 AM 53.6 °F 53.6 °F 100% 29.98 in 0.7 mi NE 3.5 mph - N/A   Mostly Cloudy
7:00 AM 55.4 °F 53.6 °F 94% 30.01 in 1.6 mi ENE 3.5 mph - N/A   Mostly Cloudy
7:35 AM 55.4 °F 53.6 °F 94% 29.98 in 0.9 mi ENE 3.5 mph - N/A   Mostly Cloudy
8:00 AM 55.4 °F 55.4 °F 100% 30.01 in 1.2 mi Variable 2.3 mph - N/A   Mostly Cloudy
8:30 AM 55.4 °F 53.6 °F 94% 29.98 in 2.2 mi SE 3.5 mph - N/A   Mostly Cloudy
9:00 AM 57.2 °F 55.4 °F 94% 30.01 in 2.2 mi ESE 4.6 mph - N/A   Mostly Cloudy
9:30 AM 57.2 °F 53.6 °F 88% 29.98 in 2.5 mi ESE 6.9 mph - N/A   Mostly Cloudy
10:00 AM 59.0 °F 53.6 °F 82% 29.98 in 1.9 mi ENE 4.6 mph - N/A   Mostly Cloudy
10:30 AM 57.2 °F 55.4 °F 94% 30.01 in 2.2 mi ENE 8.1 mph - N/A   Mostly Cloudy
10:36 AM 57.2 °F 55.4 °F 94% 30.01 in 2.2 mi ENE 8.1 mph - N/A Rain Light Rain Showers
11:00 AM 57.2 °F 55.4 °F 94% 30.01 in 2.2 mi ENE 6.9 mph - N/A Rain Light Rain Showers
11:30 AM 57.2 °F 55.4 °F 94% 30.01 in 2.2 mi East 8.1 mph - N/A Rain Light Rain Showers
12:00 PM 59.0 °F 55.4 °F 88% 30.01 in 3.7 mi ESE 9.2 mph - N/A   Mostly Cloudy
12:30 PM 59.0 °F 53.6 °F 82% 30.01 in 4.3 mi ESE 8.1 mph - N/A   Mostly Cloudy
1:00 PM 59.0 °F 55.4 °F 88% 30.01 in 5.0 mi SE 8.1 mph - N/A   Mostly Cloudy
1:30 PM 59.0 °F 55.4 °F 88% 30.01 in 5.6 mi ESE 9.2 mph - N/A   Mostly Cloudy
2:00 PM 60.8 °F 55.4 °F 82% 29.98 in 6.2 mi ESE 9.2 mph - N/A   Mostly Cloudy
2:30 PM 62.6 °F 53.6 °F 72% 29.98 in 6.2 mi ESE 9.2 mph - N/A   Scattered Clouds
3:00 PM 64.4 °F 53.6 °F 68% 29.98 in 6.2 mi ESE 5.8 mph - N/A   Scattered Clouds
3:30 PM 64.4 °F 55.4 °F 73% 29.98 in 6.2 mi ESE 8.1 mph - N/A   Scattered Clouds
4:00 PM 60.8 °F 55.4 °F 82% 29.98 in 6.2 mi ESE 10.4 mph - N/A Rain Light Rain Showers
4:30 PM 60.8 °F 55.4 °F 82% 29.95 in 6.2 mi SE 9.2 mph - N/A   Scattered Clouds
5:00 PM 62.6 °F 57.2 °F 82% 29.95 in 6.2 mi ESE 10.4 mph - N/A   Partly Cloudy
5:30 PM 64.4 °F 55.4 °F 73% 29.95 in 6.2 mi ESE 12.7 mph - N/A   Scattered Clouds
6:00 PM 62.6 °F 53.6 °F 72% 29.95 in 6.2 mi SE 12.7 mph - N/A Rain Light Rain Showers
6:30 PM 59.0 °F 55.4 °F 88% 29.95 in 6.2 mi SE 9.2 mph - N/A   Partly Cloudy
7:00 PM 60.8 °F 55.4 °F 82% 29.95 in 6.2 mi WNW 3.5 mph - N/A   Partly Cloudy
7:30 PM 59.0 °F 55.4 °F 88% 29.98 in 6.2 mi Variable 2.3 mph - N/A   Scattered Clouds
8:00 PM 59.0 °F 55.4 °F 88% 29.98 in 6.2 mi Variable 2.3 mph - N/A   Scattered Clouds
8:30 PM 59.0 °F 55.4 °F 88% 29.98 in 6.2 mi WNW 4.6 mph - N/A   Mostly Cloudy
9:00 PM 57.2 °F 53.6 °F 88% 29.98 in 6.2 mi Calm Calm - N/A   Mostly Cloudy
9:30 PM 57.2 °F 53.6 °F 88% 29.98 in 6.2 mi Variable 1.2 mph - N/A   Scattered Clouds
10:00 PM 55.4 °F 51.8 °F 88% 29.98 in 6.2 mi Variable 2.3 mph - N/A Rain Light Rain Showers
11:00 PM 55.4 °F 53.6 °F 94% 29.98 in 5.0 mi East 3.5 mph - N/A   Partly Cloudy